owner,sensor,date,latitude,longitude,vertical_datum,wind_speed,wind_to_direction,wind_speed_of_gust,qcFlag 
TABS,ioos:station:wmo:42045:1,2013-05-01T00:00:00Z,26.2168,-96.4998,4.0,4.403680279,87.65697255,5.0,'11111222,11111222,11111222' 
TABS,ioos:station:wmo:42045:1,2013-05-01T00:30:00Z,26.2168,-96.4998,4.0,4.953271646,87.91701867,5.49,'11111222,11111222,11111222' 
TABS,ioos:station:wmo:42045:1,2013-05-01T01:00:00Z,26.2168,-96.4998,4.0,5.495616435,95.53464312,6.14,'11111222,11111222,11111222' 
TABS,ioos:station:wmo:42045:1,2013-05-01T01:30:00Z,26.2168,-96.4998,4.0,5.321325023,103.6971445,6.24,'11111222,11111222,11111222' 
TABS,ioos:station:wmo:42045:1,2013-05-01T02:00:00Z,26.2168,-96.4998,4.0,5.567566793,105.3096586,6.45,'11111222,11111222,11111222' 
TABS,ioos:station:wmo:42045:1,2013-05-01T02:30:00Z,26.2168,-96.4998,4.0,6.324531603,106.6302084,7.33,'11111222,11111222,11111222' 
TABS,ioos:station:wmo:42045:1,2013-05-01T03:00:00Z,26.2168,-96.4998,4.0,6.227294758,115.0839563,7.24,'11111222,11111222,11111222' 
TABS,ioos:station:wmo:42045:1,2013-05-01T03:30:00Z,26.2168,-96.4998,4.0,4.826106091,117.5211338,5.59,'11111222,11111222,11111222' 
TABS,ioos:station:wmo:42045:1,2013-05-01T04:00:00Z,26.2168,-96.4998,4.0,4.946321866,113.0924881,5.69,'11111222,11111222,11111222' 
TABS,ioos:station:wmo:42045:1,2013-05-01T04:30:00Z,26.2168,-96.4998,4.0,5.328461316,124.5254771,6.11,'11111222,11111222,11111222' 
TABS,ioos:station:wmo:42045:1,2013-05-01T05:00:00Z,26.2168,-96.4998,4.0,4.946524032,125.0398052,5.69,'11111222,11111222,11111222' 
TABS,ioos:station:wmo:42045:1,2013-05-01T05:30:00Z,26.2168,-96.4998,4.0,4.161369967,119.830621,4.86,'11111222,11111222,11111222' 
TABS,ioos:station:wmo:42045:1,2013-05-01T06:00:00Z,26.2168,-96.4998,4.0,3.952948267,122.6049378,4.51,'11111222,11111222,11111222' 
TABS,ioos:station:wmo:42045:1,2013-05-01T06:30:00Z,26.2168,-96.4998,4.0,3.358868857,113.5125346,3.86,'11111222,11111222,11111222' 
TABS,ioos:station:wmo:42045:1,2013-05-01T07:00:00Z,26.2168,-96.4998,4.0,3.044010512,126.7196528,3.45,'11111222,11111222,11111222' 
TABS,ioos:station:wmo:42045:1,2013-05-01T07:30:00Z,26.2168,-96.4998,4.0,4.151734577,133.7316246,5.05,'11111222,11111222,11111222' 
TABS,ioos:station:wmo:42045:1,2013-05-01T08:00:00Z,26.2168,-96.4998,4.0,2.998032688,120.2430309,3.35,'11111222,11111222,11111222' 
TABS,ioos:station:wmo:42045:1,2013-05-01T08:30:00Z,26.2168,-96.4998,4.0,2.503317798,135.6476966,2.77,'11111222,11111222,11111222' 
TABS,ioos:station:wmo:42045:1,2013-05-01T09:00:00Z,26.2168,-96.4998,4.0,2.081657993,96.0670398,2.42,'11111222,11111222,11111222' 
TABS,ioos:station:wmo:42045:1,2013-05-01T09:30:00Z,26.2168,-96.4998,4.0,1.512878052,114.1935733,1.8,'11111222,11111222,11111222' 
TABS,ioos:station:wmo:42045:1,2013-05-01T10:00:00Z,26.2168,-96.4998,4.0,0.931933474,146.8217764,1.12,'11111222,11111222,11111222' 
TABS,ioos:station:wmo:42045:1,2013-05-01T10:30:00Z,26.2168,-96.4998,4.0,0.898053451,172.3212646,1.22,'11111222,11111222,11111222' 
TABS,ioos:station:wmo:42045:1,2013-05-01T11:00:00Z,26.2168,-96.4998,4.0,1.452446212,128.2904946,1.88,'11111222,11111222,11111222' 
TABS,ioos:station:wmo:42045:1,2013-05-01T11:30:00Z,26.2168,-96.4998,4.0,1.510926868,130.4370966,2.03,'11111222,11111222,11111222' 
TABS,ioos:station:wmo:42045:1,2013-05-01T12:00:00Z,26.2168,-96.4998,4.0,2.156756824,155.3364534,2.39,'11111222,11111222,11111222' 
TABS,ioos:station:wmo:42045:1,2013-05-01T12:30:00Z,26.2168,-96.4998,4.0,1.486001346,126.7931185,2.05,'11111222,11111222,11111222' 
TABS,ioos:station:wmo:42045:1,2013-05-01T13:00:00Z,26.2168,-96.4998,4.0,1.883666637,122.4248796,2.22,'11111222,11111222,11111222' 
TABS,ioos:station:wmo:42045:1,2013-05-01T13:30:00Z,26.2168,-96.4998,4.0,2.106086418,85.64261427,2.45,'11111222,11111222,11111222' 
TABS,ioos:station:wmo:42045:1,2013-05-01T14:00:00Z,26.2168,-96.4998,4.0,2.347871376,79.69475671,2.7,'11111222,11111222,11111222' 
TABS,ioos:station:wmo:42045:1,2013-05-01T14:30:00Z,26.2168,-96.4998,4.0,2.991738625,74.29097799,3.5,'11111222,11111222,11111222' 
TABS,ioos:station:wmo:42045:1,2013-05-01T15:00:00Z,26.2168,-96.4998,4.0,3.3717058,72.74696726,3.91,'11111222,11111222,11111222' 
TABS,ioos:station:wmo:42045:1,2013-05-01T15:30:00Z,26.2168,-96.4998,4.0,3.655475345,76.87576343,4.22,'11111222,11111222,11111222' 
TABS,ioos:station:wmo:42045:1,2013-05-01T16:00:00Z,26.2168,-96.4998,4.0,4.017959681,80.25596058,4.78,'11111222,11111222,11111222' 
TABS,ioos:station:wmo:42045:1,2013-05-01T16:30:00Z,26.2168,-96.4998,4.0,4.245951012,78.45149392,4.79,'11111222,11111222,11111222' 
TABS,ioos:station:wmo:42045:1,2013-05-01T17:00:00Z,26.2168,-96.4998,4.0,4.036359746,81.30739812,4.84,'11111222,11111222,11111222' 
TABS,ioos:station:wmo:42045:1,2013-05-01T17:30:00Z,26.2168,-96.4998,4.0,4.134936517,73.27382971,4.97,'11111222,11111222,11111222' 
TABS,ioos:station:wmo:42045:1,2013-05-01T18:00:00Z,26.2168,-96.4998,4.0,4.348022539,79.12900859,5.06,'11111222,11111222,11111222' 
TABS,ioos:station:wmo:42045:1,2013-05-01T18:30:00Z,26.2168,-96.4998,4.0,4.426849896,82.60166861,5.25,'11111222,11111222,11111222' 
TABS,ioos:station:wmo:42045:1,2013-05-01T19:00:00Z,26.2168,-96.4998,4.0,4.508680517,84.78215202,5.1,'11111222,11111222,11111222' 
TABS,ioos:station:wmo:42045:1,2013-05-01T19:30:00Z,26.2168,-96.4998,4.0,4.003198721,92.2910256,4.7,'11111222,11111222,11111222' 
TABS,ioos:station:wmo:42045:1,2013-05-01T20:00:00Z,26.2168,-96.4998,4.0,3.596109008,95.4256346,4.22,'11111222,11111222,11111222' 
TABS,ioos:station:wmo:42045:1,2013-05-01T20:30:00Z,26.2168,-96.4998,4.0,3.58558224,93.19797121,4.2,'11111222,11111222,11111222' 
TABS,ioos:station:wmo:42045:1,2013-05-01T21:00:00Z,26.2168,-96.4998,4.0,3.115381197,105.6426308,3.83,'11111222,11111222,11111222' 
TABS,ioos:station:wmo:42045:1,2013-05-01T21:30:00Z,26.2168,-96.4998,4.0,2.933070064,110.3506485,3.34,'11111222,11111222,11111222' 
TABS,ioos:station:wmo:42045:1,2013-05-01T22:00:00Z,26.2168,-96.4998,4.0,2.719117504,116.1884704,3.25,'11111222,11111222,11111222' 
TABS,ioos:station:wmo:42045:1,2013-05-01T22:30:00Z,26.2168,-96.4998,4.0,3.292005468,108.0500591,3.82,'11111222,11111222,11111222' 
TABS,ioos:station:wmo:42045:1,2013-05-01T23:00:00Z,26.2168,-96.4998,4.0,3.487262537,102.0836745,4.07,'11111222,11111222,11111222' 
TABS,ioos:station:wmo:42045:1,2013-05-01T23:30:00Z,26.2168,-96.4998,4.0,3.885678834,86.90154884,4.39,'11111222,11111222,11111222' 
TABS,ioos:station:wmo:42045:1,2013-05-02T00:00:00Z,26.2168,-96.4998,4.0,4.363312962,87.76670563,5.11,'11111222,11111222,11111222' 
TABS,ioos:station:wmo:42045:1,2013-05-02T00:30:00Z,26.2168,-96.4998,4.0,4.685648301,92.81396886,5.52,'11111222,11111222,11111222' 
TABS,ioos:station:wmo:42045:1,2013-05-02T01:00:00Z,26.2168,-96.4998,4.0,4.884792728,97.76556878,6.12,'11111222,11111222,11111222' 
TABS,ioos:station:wmo:42045:1,2013-05-02T01:30:00Z,26.2168,-96.4998,4.0,4.672665192,97.74900136,5.68,'11111222,11111222,11111222' 
TABS,ioos:station:wmo:42045:1,2013-05-02T02:00:00Z,26.2168,-96.4998,4.0,5.210239918,89.44973372,5.9,'11111222,11111222,11111222' 
TABS,ioos:station:wmo:42045:1,2013-05-02T02:30:00Z,26.2168,-96.4998,4.0,5.150572784,98.03611284,6.1,'11111222,11111222,11111222' 
TABS,ioos:station:wmo:42045:1,2013-05-02T03:00:00Z,26.2168,-96.4998,4.0,5.619475064,105.6936859,6.36,'11111222,11111222,11111222' 
TABS,ioos:station:wmo:42045:1,2013-05-02T03:30:00Z,26.2168,-96.4998,4.0,5.814851675,99.20353975,6.95,'11111222,11111222,11111222' 
TABS,ioos:station:wmo:42045:1,2013-05-02T04:00:00Z,26.2168,-96.4998,4.0,4.82553624,98.70142673,5.54,'11111222,11111222,11111222' 
TABS,ioos:station:wmo:42045:1,2013-05-02T04:30:00Z,26.2168,-96.4998,4.0,4.807587753,97.16976707,5.67,'11111222,11111222,11111222' 
TABS,ioos:station:wmo:42045:1,2013-05-02T05:00:00Z,26.2168,-96.4998,4.0,4.400829467,96.78630152,5.2,'11111222,11111222,11111222' 
TABS,ioos:station:wmo:42045:1,2013-05-02T05:30:00Z,26.2168,-96.4998,4.0,3.219503067,109.2232328,3.89,'11111222,11111222,11111222' 
TABS,ioos:station:wmo:42045:1,2013-05-02T06:00:00Z,26.2168,-96.4998,4.0,2.813254343,125.1592069,3.2,'11111222,11111222,11111222' 
TABS,ioos:station:wmo:42045:1,2013-05-02T06:30:00Z,26.2168,-96.4998,4.0,3.324875938,93.10377298,3.77,'11111222,11111222,11111222' 
TABS,ioos:station:wmo:42045:1,2013-05-02T07:00:00Z,26.2168,-96.4998,4.0,3.151285452,88.36300587,3.81,'11111222,11111222,11111222' 
TABS,ioos:station:wmo:42045:1,2013-05-02T07:30:00Z,26.2168,-96.4998,4.0,3.206618156,75.18329439,3.66,'11111222,11111222,11111222' 
TABS,ioos:station:wmo:42045:1,2013-05-02T08:00:00Z,26.2168,-96.4998,4.0,3.501885207,98.87095603,4.19,'11111222,11111222,11111222' 
TABS,ioos:station:wmo:42045:1,2013-05-02T08:30:00Z,26.2168,-96.4998,4.0,2.957110076,70.64557073,3.46,'11111222,11111222,11111222' 
TABS,ioos:station:wmo:42045:1,2013-05-02T09:00:00Z,26.2168,-96.4998,4.0,2.232576986,80.19975333,2.78,'11111222,11111222,11111222' 
TABS,ioos:station:wmo:42045:1,2013-05-02T09:30:00Z,26.2168,-96.4998,4.0,2.234860175,38.45931378,2.79,'11111222,11111222,11111222' 
TABS,ioos:station:wmo:42045:1,2013-05-02T10:00:00Z,26.2168,-96.4998,4.0,1.02,90.00042092,1.49,'11111222,11111222,11111222' 
TABS,ioos:station:wmo:42045:1,2013-05-02T10:30:00Z,26.2168,-96.4998,4.0,1.244829306,23.68182189,1.77,'11111222,11111222,11111222' 
TABS,ioos:station:wmo:42045:1,2013-05-02T11:00:00Z,26.2168,-96.4998,4.0,1.514628667,352.0301978,1.91,'11111222,11111222,11111222' 
TABS,ioos:station:wmo:42045:1,2013-05-02T11:30:00Z,26.2168,-96.4998,4.0,5.362107795,323.4932802,6.9,'11111222,11111222,11111222' 
TABS,ioos:station:wmo:42045:1,2013-05-02T12:00:00Z,26.2168,-96.4998,4.0,3.151015709,1.454604316,5.13,'11111222,11111222,11111222' 
TABS,ioos:station:wmo:42045:1,2013-05-02T12:30:00Z,26.2168,-96.4998,4.0,1.93380454,349.2709553,2.49,'11111222,11111222,11111222' 
TABS,ioos:station:wmo:42045:1,2013-05-02T13:00:00Z,26.2168,-96.4998,4.0,2.014199593,3.700323943,2.59,'11111222,11111222,11111222' 
TABS,ioos:station:wmo:42045:1,2013-05-02T13:30:00Z,26.2168,-96.4998,4.0,0.840951842,87.27327446,1.22,'11111222,11111222,11111222' 
TABS,ioos:station:wmo:42045:1,2013-05-02T14:00:00Z,26.2168,-96.4998,4.0,1.684428687,172.4954956,2.16,'11111222,11111222,11111222' 
TABS,ioos:station:wmo:42045:1,2013-05-02T14:30:00Z,26.2168,-96.4998,4.0,1.840489065,288.0411274,2.47,'11111222,11111222,11111222' 
TABS,ioos:station:wmo:42045:1,2013-05-02T15:00:00Z,26.2168,-96.4998,4.0,1.523154621,246.8014637,2.07,'11111222,11111222,11111222' 
TABS,ioos:station:wmo:42045:1,2013-05-02T15:30:00Z,26.2168,-96.4998,4.0,0.711196175,207.6461212,1.36,'11111222,11111222,11111222' 
TABS,ioos:station:wmo:42045:1,2013-05-02T16:00:00Z,26.2168,-96.4998,4.0,3.955211752,155.1846577,5.04,'11111222,11111222,11111222' 
TABS,ioos:station:wmo:42045:1,2013-05-02T16:30:00Z,26.2168,-96.4998,4.0,0.660302961,144.8660996,1.46,'11111222,11111222,11111222' 
TABS,ioos:station:wmo:42045:1,2013-05-02T17:00:00Z,26.2168,-96.4998,4.0,3.412286623,296.2646215,4.3,'11111222,11111222,11111222' 
TABS,ioos:station:wmo:42045:1,2013-05-02T17:30:00Z,26.2168,-96.4998,4.0,5.619439474,298.2523505,6.43,'11111222,11111222,11111222' 
TABS,ioos:station:wmo:42045:1,2013-05-02T18:00:00Z,26.2168,-96.4998,4.0,7.42550335,298.9121405,8.41,'11111222,11111222,11111222' 
TABS,ioos:station:wmo:42045:1,2013-05-02T18:30:00Z,26.2168,-96.4998,4.0,5.789386841,308.8297341,7.6,'11111222,11111222,11111222' 
TABS,ioos:station:wmo:42045:1,2013-05-02T19:00:00Z,26.2168,-96.4998,4.0,6.576229923,315.369539,8.31,'11111222,11111222,11111222' 
TABS,ioos:station:wmo:42045:1,2013-05-02T19:30:00Z,26.2168,-96.4998,4.0,6.89809394,323.4289959,9.12,'11111222,11111222,11111222' 
TABS,ioos:station:wmo:42045:1,2013-05-02T20:00:00Z,26.2168,-96.4998,4.0,6.44413687,322.7565481,8.48,'11111222,11111222,11111222' 
TABS,ioos:station:wmo:42045:1,2013-05-02T20:30:00Z,26.2168,-96.4998,4.0,6.532419154,323.7790437,9.05,'11111222,11111222,11111222' 
TABS,ioos:station:wmo:42045:1,2013-05-02T21:00:00Z,26.2168,-96.4998,4.0,6.278885251,296.4833714,10.45,'11111222,11111222,11111222' 
TABS,ioos:station:wmo:42045:1,2013-05-02T21:30:00Z,26.2168,-96.4998,4.0,4.898040424,265.0809391,10.38,'11111222,11111222,11111222' 
TABS,ioos:station:wmo:42045:1,2013-05-02T22:00:00Z,26.2168,-96.4998,4.0,4.47825859,285.2775255,9.1,'11111222,11111222,11111222' 
TABS,ioos:station:wmo:42045:1,2013-05-02T22:30:00Z,26.2168,-96.4998,4.0,3.432098483,300.0761164,8.27,'11111222,11111222,11111222' 
TABS,ioos:station:wmo:42045:1,2013-05-02T23:00:00Z,26.2168,-96.4998,4.0,3.412037514,322.8613018,7.53,'11111222,11111222,11111222' 
TABS,ioos:station:wmo:42045:1,2013-05-02T23:30:00Z,26.2168,-96.4998,4.0,3.15293514,333.8411458,8.39,'11111222,11111222,11111222' 
TABS,ioos:station:wmo:42045:1,2013-05-03T00:00:00Z,26.2168,-96.4998,4.0,3.38787544,286.9907836,8.27,'11111222,11111222,11111222' 
TABS,ioos:station:wmo:42045:1,2013-05-03T00:30:00Z,26.2168,-96.4998,4.0,3.303392196,255.6272549,8.64,'11111222,11111222,11111222' 
TABS,ioos:station:wmo:42045:1,2013-05-03T01:00:00Z,26.2168,-96.4998,4.0,2.295822293,251.7229331,7.87,'11111222,11111222,11111222' 
TABS,ioos:station:wmo:42045:1,2013-05-03T01:30:00Z,26.2168,-96.4998,4.0,1.926577276,290.0338763,6.57,'11111222,11111222,11111222' 
TABS,ioos:station:wmo:42045:1,2013-05-03T02:00:00Z,26.2168,-96.4998,4.0,2.42216845,281.9129958,7.8,'11111222,11111222,11111222' 
TABS,ioos:station:wmo:42045:1,2013-05-03T02:30:00Z,26.2168,-96.4998,4.0,1.398427689,253.379282,8.17,'11111222,11111222,11111222' 
TABS,ioos:station:wmo:42045:1,2013-05-03T03:00:00Z,26.2168,-96.4998,4.0,0.986002028,306.7535932,7.47,'11111222,11111222,11111222' 
TABS,ioos:station:wmo:42045:1,2013-05-03T03:30:00Z,26.2168,-96.4998,4.0,1.371313239,219.3777177,8.54,'11111222,11111222,11111222' 
TABS,ioos:station:wmo:42045:1,2013-05-03T04:00:00Z,26.2168,-96.4998,4.0,1.844803513,196.3721855,8.27,'11111222,11111222,11111222' 
TABS,ioos:station:wmo:42045:1,2013-05-03T04:30:00Z,26.2168,-96.4998,4.0,3.818114718,220.1131068,9.51,'11111222,11111222,11111222' 
TABS,ioos:station:wmo:42045:1,2013-05-03T05:00:00Z,26.2168,-96.4998,4.0,3.944223624,217.4801452,10.08,'11111222,11111222,11111222' 
TABS,ioos:station:wmo:42045:1,2013-05-03T05:30:00Z,26.2168,-96.4998,4.0,2.967086113,210.3677764,8.84,'11111222,11111222,11111222' 
TABS,ioos:station:wmo:42045:1,2013-05-03T06:00:00Z,26.2168,-96.4998,4.0,4.323482393,210.8957126,12.11,'11111222,11111222,11111222' 
TABS,ioos:station:wmo:42045:1,2013-05-03T06:30:00Z,26.2168,-96.4998,4.0,3.558159637,230.3594604,9.76,'11111222,11111222,11111222' 
TABS,ioos:station:wmo:42045:1,2013-05-03T07:00:00Z,26.2168,-96.4998,4.0,1.901183842,242.0871268,8.12,'11111222,11111222,11111222' 
TABS,ioos:station:wmo:42045:1,2013-05-03T07:30:00Z,26.2168,-96.4998,4.0,4.406472512,208.0190916,11.71,'11111222,11111222,11111222' 
TABS,ioos:station:wmo:42045:1,2013-05-03T08:00:00Z,26.2168,-96.4998,4.0,5.147523676,206.9136483,13.92,'11111222,11111222,11111222' 
TABS,ioos:station:wmo:42045:1,2013-05-03T08:30:00Z,26.2168,-96.4998,4.0,2.874717377,238.0791984,9.78,'11111222,11111222,11111222' 
TABS,ioos:station:wmo:42045:1,2013-05-03T09:00:00Z,26.2168,-96.4998,4.0,5.318467824,234.8756782,13.31,'11111222,11111222,11111222' 
TABS,ioos:station:wmo:42045:1,2013-05-03T09:30:00Z,26.2168,-96.4998,4.0,7.250999931,220.3014357,13.6,'11111222,11111222,11111222' 
TABS,ioos:station:wmo:42045:1,2013-05-03T10:00:00Z,26.2168,-96.4998,4.0,7.539051664,230.6518654,15.62,'11111222,11111222,11111222' 
TABS,ioos:station:wmo:42045:1,2013-05-03T10:30:00Z,26.2168,-96.4998,4.0,6.818658226,231.0122071,13.37,'11111222,11111222,11111222' 
TABS,ioos:station:wmo:42045:1,2013-05-03T11:00:00Z,26.2168,-96.4998,4.0,5.679049216,248.9480513,12.16,'11111222,11111222,11111222' 
TABS,ioos:station:wmo:42045:1,2013-05-03T11:30:00Z,26.2168,-96.4998,4.0,5.438648729,242.6340549,14.39,'11111222,11111222,11111222' 
TABS,ioos:station:wmo:42045:1,2013-05-03T12:00:00Z,26.2168,-96.4998,4.0,5.90745292,241.2657584,12.47,'11111222,11111222,11111222' 
TABS,ioos:station:wmo:42045:1,2013-05-03T12:30:00Z,26.2168,-96.4998,4.0,7.351686881,245.3174525,13.33,'11111222,11111222,11111222' 
TABS,ioos:station:wmo:42045:1,2013-05-03T13:00:00Z,26.2168,-96.4998,4.0,7.387692468,247.3921196,12.62,'11111222,11111222,11111222' 
TABS,ioos:station:wmo:42045:1,2013-05-03T13:30:00Z,26.2168,-96.4998,4.0,9.424245328,233.543605,15.87,'11111222,11111222,11111222' 
TABS,ioos:station:wmo:42045:1,2013-05-03T14:00:00Z,26.2168,-96.4998,4.0,7.647306715,238.6379897,14.9,'11111222,11111222,11111222' 
TABS,ioos:station:wmo:42045:1,2013-05-03T14:30:00Z,26.2168,-96.4998,4.0,6.753939591,248.6397321,12.68,'11111222,11111222,11111222' 
TABS,ioos:station:wmo:42045:1,2013-05-03T15:00:00Z,26.2168,-96.4998,4.0,6.700044776,257.8515174,13.56,'11111222,11111222,11111222' 
TABS,ioos:station:wmo:42045:1,2013-05-03T15:30:00Z,26.2168,-96.4998,4.0,7.978696635,253.245769,13.39,'11111222,11111222,11111222' 
TABS,ioos:station:wmo:42045:1,2013-05-03T16:00:00Z,26.2168,-96.4998,4.0,6.662627109,266.4719523,11.92,'11111222,11111222,11111222' 
TABS,ioos:station:wmo:42045:1,2013-05-03T16:30:00Z,26.2168,-96.4998,4.0,6.404498419,272.1475804,13.02,'11111222,11111222,11111222' 
TABS,ioos:station:wmo:42045:1,2013-05-03T17:00:00Z,26.2168,-96.4998,4.0,6.702417474,268.4610842,12.52,'11111222,11111222,11111222' 
TABS,ioos:station:wmo:42045:1,2013-05-03T17:30:00Z,26.2168,-96.4998,4.0,6.168865374,280.2715931,12.03,'11111222,11111222,11111222' 
TABS,ioos:station:wmo:42045:1,2013-05-03T18:00:00Z,26.2168,-96.4998,4.0,6.172722252,283.5859594,11.28,'11111222,11111222,11111222' 
TABS,ioos:station:wmo:42045:1,2013-05-03T18:30:00Z,26.2168,-96.4998,4.0,7.643206134,278.9570171,11.53,'11111222,11111222,11111222' 
TABS,ioos:station:wmo:42045:1,2013-05-03T19:00:00Z,26.2168,-96.4998,4.0,6.751629433,288.0323668,11.18,'11111222,11111222,11111222' 
TABS,ioos:station:wmo:42045:1,2013-05-03T19:30:00Z,26.2168,-96.4998,4.0,7.018960037,290.6037674,11.34,'11111222,11111222,11111222' 
TABS,ioos:station:wmo:42045:1,2013-05-03T20:00:00Z,26.2168,-96.4998,4.0,7.506563794,286.9623963,10.45,'11111222,11111222,11111222' 
TABS,ioos:station:wmo:42045:1,2013-05-03T20:30:00Z,26.2168,-96.4998,4.0,7.769202018,286.2188683,12.37,'11111222,11111222,11111222' 
TABS,ioos:station:wmo:42045:1,2013-05-03T21:00:00Z,26.2168,-96.4998,4.0,7.346597852,293.2497388,10.43,'11111222,11111222,11111222' 
TABS,ioos:station:wmo:42045:1,2013-05-03T21:30:00Z,26.2168,-96.4998,4.0,7.288799627,291.3196485,10.1,'11111222,11111222,11111222' 
TABS,ioos:station:wmo:42045:1,2013-05-03T22:00:00Z,26.2168,-96.4998,4.0,7.304772413,297.8278851,11.24,'11111222,11111222,11111222' 
TABS,ioos:station:wmo:42045:1,2013-05-03T22:30:00Z,26.2168,-96.4998,4.0,7.017898546,299.6334206,9.78,'11111222,11111222,11111222' 
TABS,ioos:station:wmo:42045:1,2013-05-03T23:00:00Z,26.2168,-96.4998,4.0,6.44764298,317.4512302,9.9,'11111222,11111222,11111222' 
TABS,ioos:station:wmo:42045:1,2013-05-03T23:30:00Z,26.2168,-96.4998,4.0,6.481211307,321.3262655,9.77,'11111222,11111222,11111222' 
TABS,ioos:station:wmo:42045:1,2013-05-04T00:00:00Z,26.2168,-96.4998,4.0,6.005364269,324.3512859,8.3,'11111222,11111222,11111222' 
TABS,ioos:station:wmo:42045:1,2013-05-04T00:30:00Z,26.2168,-96.4998,4.0,6.060709529,327.1226364,8.88,'11111222,11111222,11111222' 
TABS,ioos:station:wmo:42045:1,2013-05-04T01:00:00Z,26.2168,-96.4998,4.0,5.680008803,343.6387503,8.65,'11111222,11111222,11111222' 
TABS,ioos:station:wmo:42045:1,2013-05-04T01:30:00Z,26.2168,-96.4998,4.0,5.99082632,345.4996567,8.45,'11111222,11111222,11111222' 
TABS,ioos:station:wmo:42045:1,2013-05-04T02:00:00Z,26.2168,-96.4998,4.0,5.787313712,342.1910408,8.18,'11111222,11111222,11111222' 
TABS,ioos:station:wmo:42045:1,2013-05-04T02:30:00Z,26.2168,-96.4998,4.0,5.673455737,350.7699249,8.05,'11111222,11111222,11111222' 
TABS,ioos:station:wmo:42045:1,2013-05-04T03:00:00Z,26.2168,-96.4998,4.0,5.602758249,350.7560457,8.61,'11111222,11111222,11111222' 
TABS,ioos:station:wmo:42045:1,2013-05-04T03:30:00Z,26.2168,-96.4998,4.0,5.89143446,358.735405,8.11,'11111222,11111222,11111222' 
TABS,ioos:station:wmo:42045:1,2013-05-04T04:00:00Z,26.2168,-96.4998,4.0,5.631500688,8.475196551,8.07,'11111222,11111222,11111222' 
TABS,ioos:station:wmo:42045:1,2013-05-04T04:30:00Z,26.2168,-96.4998,4.0,5.243815405,2.185585237,7.53,'11111222,11111222,11111222' 
TABS,ioos:station:wmo:42045:1,2013-05-04T05:00:00Z,26.2168,-96.4998,4.0,5.606032465,2.65803556,8.02,'11111222,11111222,11111222' 
TABS,ioos:station:wmo:42045:1,2013-05-04T05:30:00Z,26.2168,-96.4998,4.0,5.514208919,10.02580319,7.91,'11111222,11111222,11111222' 
TABS,ioos:station:wmo:42045:1,2013-05-04T06:00:00Z,26.2168,-96.4998,4.0,4.858446254,7.212553744,6.93,'11111222,11111222,11111222' 
TABS,ioos:station:wmo:42045:1,2013-05-04T06:30:00Z,26.2168,-96.4998,4.0,4.813688814,347.5226521,6.82,'11111222,11111222,11111222' 
TABS,ioos:station:wmo:42045:1,2013-05-04T07:00:00Z,26.2168,-96.4998,4.0,4.050999877,1.272816585,6.53,'11111222,11111222,11111222' 
TABS,ioos:station:wmo:42045:1,2013-05-04T07:30:00Z,26.2168,-96.4998,4.0,4.597488445,24.00018337,6.58,'11111222,11111222,11111222' 
TABS,ioos:station:wmo:42045:1,2013-05-04T08:00:00Z,26.2168,-96.4998,4.0,4.431026969,24.25106151,5.92,'11111222,11111222,11111222' 
TABS,ioos:station:wmo:42045:1,2013-05-04T08:30:00Z,26.2168,-96.4998,4.0,4.644136088,10.92256872,6.53,'11111222,11111222,11111222' 
TABS,ioos:station:wmo:42045:1,2013-05-04T09:00:00Z,26.2168,-96.4998,4.0,3.94263871,10.22662333,5.51,'11111222,11111222,11111222' 
TABS,ioos:station:wmo:42045:1,2013-05-04T09:30:00Z,26.2168,-96.4998,4.0,3.8501948,23.90178406,5.25,'11111222,11111222,11111222' 
TABS,ioos:station:wmo:42045:1,2013-05-04T10:00:00Z,26.2168,-96.4998,4.0,3.273912033,30.87343344,4.42,'11111222,11111222,11111222' 
TABS,ioos:station:wmo:42045:1,2013-05-04T10:30:00Z,26.2168,-96.4998,4.0,3.48208271,36.4746918,4.95,'11111222,11111222,11111222' 
TABS,ioos:station:wmo:42045:1,2013-05-04T11:00:00Z,26.2168,-96.4998,4.0,3.94391937,56.26929805,6.01,'11111222,11111222,11111222' 
TABS,ioos:station:wmo:42045:1,2013-05-04T11:30:00Z,26.2168,-96.4998,4.0,3.524329724,59.28682319,4.91,'11111222,11111222,11111222' 
TABS,ioos:station:wmo:42045:1,2013-05-04T12:00:00Z,26.2168,-96.4998,4.0,3.186863662,49.96390687,4.46,'11111222,11111222,11111222' 
TABS,ioos:station:wmo:42045:1,2013-05-04T12:30:00Z,26.2168,-96.4998,4.0,2.893872838,70.62548462,3.86,'11111222,11111222,11111222' 
TABS,ioos:station:wmo:42045:1,2013-05-04T13:00:00Z,26.2168,-96.4998,4.0,2.072414051,87.23382372,3.81,'11111222,11111222,11111222' 
TABS,ioos:station:wmo:42045:1,2013-05-04T13:30:00Z,26.2168,-96.4998,4.0,2.207917571,111.8017794,3.86,'11111222,11111222,11111222' 
TABS,ioos:station:wmo:42045:1,2013-05-04T14:00:00Z,26.2168,-96.4998,4.0,1.851512895,116.9805885,3.23,'11111222,11111222,11111222' 
TABS,ioos:station:wmo:42045:1,2013-05-04T14:30:00Z,26.2168,-96.4998,4.0,1.704699387,121.0793879,2.66,'11111222,11111222,11111222' 
TABS,ioos:station:wmo:42045:1,2013-05-04T15:00:00Z,26.2168,-96.4998,4.0,2.006015952,142.9019032,2.9,'11111222,11111222,11111222' 
TABS,ioos:station:wmo:42045:1,2013-05-04T15:30:00Z,26.2168,-96.4998,4.0,1.86118242,151.7829206,2.75,'11111222,11111222,11111222' 
TABS,ioos:station:wmo:42045:1,2013-05-04T16:00:00Z,26.2168,-96.4998,4.0,1.63370744,155.7885128,3.1,'11111222,11111222,11111222' 
TABS,ioos:station:wmo:42045:1,2013-05-04T16:30:00Z,26.2168,-96.4998,4.0,1.917081115,156.6447002,2.88,'11111222,11111222,11111222' 
TABS,ioos:station:wmo:42045:1,2013-05-04T17:00:00Z,26.2168,-96.4998,4.0,2.018539076,155.7207525,3.41,'11111222,11111222,11111222' 
TABS,ioos:station:wmo:42045:1,2013-05-04T17:30:00Z,26.2168,-96.4998,4.0,1.601249512,152.4750491,2.63,'11111222,11111222,11111222' 
TABS,ioos:station:wmo:42045:1,2013-05-04T18:00:00Z,26.2168,-96.4998,4.0,1.797776404,122.2759898,2.54,'11111222,11111222,11111222' 
TABS,ioos:station:wmo:42045:1,2013-05-04T18:30:00Z,26.2168,-96.4998,4.0,2.366178353,112.8810046,3.18,'11111222,11111222,11111222' 